STARLINK-11529, 62599

Orbit data source: Space-Track

STARLINK-11529, 62599 is a payload satellite owned by SpaceX/Seattle (US) in LEO that was launched on Mon, 13 Jan 2025 UTC via an FALCON 9 launch vehicle from the Air Force Eastern Test Range (AFETR). Payloads include a variety of satellites, spacecraft, and rockets equipped with specific instruments for various scientific and technological missions. These include communications satellites like Starlink; space stations such as the ISS; scientific satellites like the Hubble; Earth observation satellites from companies like Planet Labs, Umbra, and HawkEye 360; GPS; miniature CubeSats for education and research; and military/defense satellites.

Loading next visibility...
STARLINK-11529 details
Identifier
62599, 2025-008N
Orbit
LEO
Last TLE update10 hours ago
Origin
Flag of USSpaceX/Seattle (US)
ManufacturerSpaceX/Seattle
MissionOperational spacecraft
Bus & MotorSTARLINK V2M, Unknown motor
Mass730 kg wet, ~700 kg dry
Launch date (UTC)
2025-01-13 (1 month ago)
Launch vehicle
FALCON 9
Launch site
Air Force Eastern Test Range (AFETR)
Object type
Payload
Rocket body
Debris
Shape & HBRUnknown
Radar Cross SectionLarge (>1 m²)

Expand to show TLE details & history

TLE from 10 hours ago
0 STARLINK-11529
1 62599U 25008N   25047.09595063  .00000842  00000-0  77073-5 0  9994
2 62599  42.9996 297.2808 0001612 245.7701 114.3001 15.77853343  6477
Epoch: 2025-02-16T02:18Z
Definitive object data (Epoch: 2025-02-16T02:18:10.134Z)
Latitude-0.00001°
Longitude116.40465°
Altitude336.74 km
Speed7.708 km/s
True Right ascension19h 49m 07s
True Declination0° 00' 00"
Sunlit
Object was in daylight at TLE epoch
Visualization TLE readout
Latitude-29.12634°
Longitude77.29983°
Altitude343.74 km
Speed7.703 km/s
Apparent Right ascension20h 54m 06s
Apparent Declination-70° 48' 48"
Sunlit
Object is in daylight
Visualization observer readout
Local Sidereal Time15:31:20
Azimuth156.849° SSE
Elevation-34.42°
Doppler factor1
Orbital elements
Apogee altitude339.594 km
Perigee altitude337.429 km
Semi-major axis6,716.648 km
Eccentricity0.0001612
Inclination42.9996°
RAAN297.2808°
Arg. of periapsis245.7701°
True anomaly114.31693°
Mean anomaly114.3001°
Eccentric anomaly114.30852°
Mean motion3.94289 °/min
BSTAR0.0000077073
Orbital period91.3 mins
Loading maneuver chart data...
Loading historical data...
Loading historical data...
Loading historical data...
Loading historical data...
Loading historical data...
Loading historical data...
Loading historical data...

STARLINK-11529 Visibility forecast

Observer location: undefined°, undefined

Span
Click to sort rows by Start time (UTC) header in descending order
Start Az.
Max El. time (UTC)
Max El. Az.
Max El.
End time (UTC)
End Az.
4 mins2025-02-16 20:47:45.539Z245.949° WSW2025-02-16 20:49:45.539Z86.237° E41.314°2025-02-16 20:51:45.539Z73.279° E
4 mins2025-02-16 22:23:45.539Z297.3° NW2025-02-16 22:24:45.539Z331.17° NNW32.109°2025-02-16 22:27:45.539Z70.342° E
4 mins2025-02-16 23:59:45.539Z298.82° NW2025-02-17 00:00:45.539Z335.106° NNW41.084°2025-02-17 00:03:45.539Z98.276° ESE
|